Regional Weather Roundup
Issued by NWS

Home | Current Version | Previous Version | Text Only | Print | Product List | Glossary Off
Versions: 1 2 3 4 5 6 7 8 9 10 11 12 13 14 15 16 17 18 19 20 21 22 23 24 25 26 27 28 29 30 31 32 33 34 35 36 37 38 39 40 41 42 43 44 45 46 47 48 49 50

000
ASUS43 KOAX 230210
RWRNE

WEATHER ROUNDUP FOR NEBRASKA
NATIONAL WEATHER SERVICE OMAHA NE
900 PM CDT FRI MAY 22 2015

NOTES: SATELLITE DATA IS BEING USED TO AUGMENT CLOUD COVER ABOVE
       12000 FEET.
       "FAIR" INDICATES FEW OR NO CLOUDS BELOW 12,000 FEET WITH NO
       SIGNIFICANT WEATHER AND/OR OBSTRUCTIONS TO VISIBILITY.

  * THESE STATIONS DO NOT REPORT WEATHER SUCH AS RAIN...SNOW OR FOG.

NEZ001>004-019>022-054>056-230300-
NEBRASKA PANHANDLE

CITY           SKY/WX    TMP DP  RH WIND       PRES   REMARKS
SCOTTSBLUFF    CLOUDY    47  46  97 SE15      30.06R FOG
ALLIANCE       CLOUDY    46  44  93 SE13      30.07R
CHADRON        CLOUDY    49  44  83 SE8       30.08R
KIMBALL          N/A    N/A N/A N/A MISG        N/A
SIDNEY         CLOUDY    45  44  97 E14       30.06S FOG
$$

NEZ057>060-069>072-079>082-230300-
SOUTHWEST NEBRASKA

CITY           SKY/WX    TMP DP  RH WIND       PRES   REMARKS
NORTH PLATTE   LGT RAIN  48  47  96 E14       30.10R
IMPERIAL       CLOUDY    49  47  93 SE15      30.04R FOG
LEXINGTON      RAIN      51  50  96 SE12      30.11S
MCCOOK         CLOUDY    51  50  96 E15       30.07S FOG
OGALLALA       LGT RAIN  47  46  98 E12       30.07S
$$

NEZ005>010-023>029-035>040-094-230300-
NORTH CENTRAL NEBRASKA

CITY           SKY/WX    TMP DP  RH WIND       PRES   REMARKS
VALENTINE      CLOUDY    50  42  74 SE12      30.14R
AINSWORTH      LGT RAIN  48  45  90 SE8       30.15S
BROKEN BOW     LGT RAIN  50  47  89 E9        30.13S
O`NEILL        LGT RAIN  51  49  90 SE5       30.17S
ORD            LGT RAIN  49  47  93 E5        30.15S
THEDFORD       RAIN      48  46  91 SE12      30.13S
$$

NEZ041-046>049-061>064-073>077-083>087-230300-
SOUTH CENTRAL NEBRASKA

CITY           SKY/WX    TMP DP  RH WIND       PRES   REMARKS
GRAND ISLAND   CLOUDY    54  48  80 SE8       30.16S
AURORA         CLOUDY    56  47  72 SE7       30.15S
HASTINGS       CLOUDY    53  51  93 SE9       30.14S FOG
HEBRON         CLOUDY    59  48  67 SE6       30.15S
HOLDREGE       CLOUDY    51  50  95 SE14      30.11S FOG
KEARNEY *      CLOUDY    52  48  87 SE15      30.13F
YORK           CLOUDY    55  48  76 SE9       30.16S
$$

NEZ011>018-030>034-042>045-230300-
NORTHEAST NEBRASKA

CITY           SKY/WX    TMP DP  RH WIND       PRES   REMARKS
NORFOLK        LGT RAIN  54  50  86 E3        30.17S
ALBION         CLOUDY    53  49  88 SE3       30.17R
BLAIR          CLOUDY    59  47  64 SE5       30.18S
COLUMBUS *     CLOUDY    57  43  58 SE7       30.20S
FREMONT        CLOUDY    63  44  49 SE7       30.18S
TEKAMAH        CLOUDY    59  50  72 E7        30.17F
WAYNE          CLOUDY    56  47  71 SE8       30.18S
$$

NEZ050>053-065>068-078-088>093-230300-
SOUTHEAST NEBRASKA

CITY           SKY/WX    TMP DP  RH WIND       PRES   REMARKS
LINCOLN        CLOUDY    61  45  55 SE10      30.18S
OMAHA EPPLEY   CLOUDY    63  46  54 SE7       30.18R
BEATRICE       CLOUDY    60  46  59 SE6       30.17S
FALLS CITY     CLOUDY    61  49  64 E8        30.18S
NEBRASKA CITY  CLOUDY    61  43  51 SE6       30.19R
PLATTSMOUTH    CLOUDY    61  46  56 SE6       30.19R
$$

NEZ044-045-051>053-067-230300-
OMAHA AREA

CITY           SKY/WX    TMP DP  RH WIND       PRES   REMARKS
OMAHA EPPLEY   CLOUDY    63  46  54 SE7       30.18R
BLAIR          CLOUDY    59  47  64 SE5       30.18S
FREMONT        CLOUDY    63  44  49 SE7       30.18S
MILLARD        CLOUDY    62  48  60 SE3       30.18S
OFFUTT AFB     CLOUDY    61  52  72 SE5       30.17S
PLATTSMOUTH    CLOUDY    61  46  56 SE6       30.19R
WAHOO          CLOUDY    60  47  62 SE7       30.18R
$$



USA.gov is the U.S. government's official web portal to all federal, state and local government web resources and services.